Weather History for PATK - February, 2014

Change the Weather History Date:

Thursday, February 6, 2014

  Actual Average Record
Temperature  
Mean Temperature 12 °F -  
Max Temperature 25 °F 26 °F 42 °F (1977)
Min Temperature -2 °F 10 °F -39 °F (1990)
Degree Days  
Heating Degree Days 54    
Moisture  
Dew Point 4 °F    
Average Humidity 77    
Maximum Humidity 92    
Minimum Humidity 38    
Precipitation  
Precipitation 0.03 in - - ()
Sea Level Pressure  
Sea Level Pressure 30.19 in    
Wind  
Wind Speed 1 mph (NE)    
Max Wind Speed 22 mph    
Max Gust Speed 28 mph    
Visibility 8 miles    
Events Fog , Snow    
Averages and records for this station are not official NWS values.
T = Trace of Precipitation, MM = Missing Value Source: NWS Daily Summary

Daily Weather History Graph

Daily Weather History Graph

Search for Another Location

Airport or City:

Trip Planner

Search our weather history database for the weather conditions in past years. The results will help you decide how hot, cold, wet, or windy it might be!

Date:

Astronomy

Feb. 06, 2014 Rise Set
Actual Time 9:13 AM AKST 5:16 PM AKST
Civil Twilight 8:22 AM AKST 6:07 PM AKST
Nautical Twilight 7:29 AM AKST 7:00 PM AKST
Astronomical Twilight 6:37 AM AKST 7:52 PM AKST
Moon 10:46 AM AKST (2/6) 2:43 AM AKST (2/6)
Length of Visible Light 9h 44m
Length of Day
8h 03m
Waxing Crescent, 51% of the Moon is Illuminated
Feb 6
Waxing Crescent
Feb 14
Full
Feb 22
Last Quarter
Feb 28
New
Mar 8
First Quarter

Hourly Weather History & Observations

Time (AKST) Temp. Windchill Dew Point Humidity Pressure Visibility Wind Dir Wind Speed Gust Speed Precip Events Conditions
12:53 AM 3.9 °F - -0.9 °F 80% 30.59 in 10.0 mi Calm Calm - N/A   Clear
1:53 AM 3.0 °F - -0.9 °F 84% 30.58 in 10.0 mi Calm Calm - N/A   Clear
2:53 AM 1.9 °F - -2.0 °F 83% 30.56 in 10.0 mi Calm Calm - N/A   Clear
3:53 AM 1.9 °F - -2.9 °F 80% 30.53 in 10.0 mi Calm Calm - N/A   Clear
4:53 AM 1.0 °F - -4.0 °F 79% 30.51 in 10.0 mi Calm Calm - N/A   Clear
5:53 AM -0.0 °F - -4.0 °F 83% 30.48 in 10.0 mi Calm Calm - N/A   Clear
6:53 AM -0.0 °F - -5.1 °F 79% 30.46 in 10.0 mi Calm Calm - N/A   Clear
7:53 AM -0.0 °F - -4.0 °F 83% 30.43 in 6.0 mi Calm Calm - N/A   Clear
8:53 AM -0.9 °F - -5.1 °F 83% 30.39 in 10.0 mi Calm Calm - N/A   Scattered Clouds
9:53 AM -2.0 °F - -7.1 °F 79% 30.34 in 8.0 mi Calm Calm - N/A   Mostly Cloudy
10:53 AM 1.9 °F - -2.9 °F 80% 30.31 in 10.0 mi Calm Calm - N/A   Mostly Cloudy
11:53 AM 6.1 °F - -0.0 °F 76% 30.26 in 10.0 mi Calm Calm - N/A   Overcast
12:53 PM 9.0 °F - 3.0 °F 77% 30.22 in 10.0 mi Calm Calm - N/A   Overcast
1:53 PM 12.0 °F - 5.0 °F 73% 30.13 in 10.0 mi Calm Calm - N/A   Overcast
2:53 PM 15.1 °F - 6.1 °F 68% 30.10 in 10.0 mi Calm Calm - N/A   Overcast
3:27 PM 15.8 °F 10.2 °F 8.6 °F 73% 30.03 in 1.8 mi NE 3.5 mph - 0.00 in Snow Light Snow
3:33 PM 15.8 °F 10.2 °F 8.6 °F 73% 30.03 in 0.8 mi NNE 3.5 mph - 0.00 in Snow Light Snow
3:46 PM 15.8 °F 8.6 °F 10.4 °F 79% 30.03 in 0.5 mi NNE 4.6 mph - 0.00 in Snow Snow
3:53 PM 15.1 °F 9.4 °F 10.9 °F 84% 30.06 in 0.5 mi NE 3.5 mph - 0.01 in Fog , Snow Snow
4:20 PM 15.8 °F 8.6 °F 12.2 °F 86% 30.01 in 0.2 mi NW 4.6 mph - 0.02 in Fog , Snow Heavy Snow
4:28 PM 15.8 °F - 12.2 °F 86% 29.99 in 0.5 mi Calm Calm - 0.02 in Fog , Snow Light Snow
4:33 PM 15.8 °F - 12.2 °F 86% 30.00 in 2.0 mi Calm Calm - 0.02 in Snow Light Snow
4:46 PM 15.8 °F - 12.2 °F 86% 29.98 in 3.0 mi Calm Calm - 0.02 in Snow Light Snow
4:53 PM 16.0 °F - 12.0 °F 84% 30.01 in 7.0 mi Calm Calm - 0.02 in   Overcast
5:53 PM 14.0 °F 8.2 °F 10.9 °F 88% 29.98 in 10.0 mi East 3.5 mph - N/A   Overcast
6:53 PM 14.0 °F - 10.0 °F 84% 29.96 in 10.0 mi Calm Calm - N/A   Overcast
7:53 PM 12.9 °F - 10.0 °F 88% 29.94 in 10.0 mi Calm Calm - N/A   Mostly Cloudy
8:53 PM 9.0 °F - 7.0 °F 92% 29.93 in 10.0 mi Calm Calm - N/A   Clear
9:53 PM 25.0 °F 10.2 °F 5.0 °F 43% 29.91 in 7.0 mi NE 21.9 mph 27.6 mph 0.00 in   Scattered Clouds
10:53 PM 23.0 °F 9.2 °F 3.9 °F 44% 29.93 in 8.0 mi NNE 17.3 mph 27.6 mph 0.00 in   Clear
11:53 PM 21.9 °F 6.5 °F -0.0 °F 38% 29.94 in 10.0 mi NE 20.7 mph 26.5 mph 0.00 in   Clear